When you browse on this site, cookies collect data to enhance your experience and personalize the content and advertising you see.
Visit our Privacy Policy to learn more. By continuing to use the site, you agree to this use of cookies and data.
  • în România
  • Lista ţărilor
  • Pe 7 zile
  • Temperatura apei
  • Meteo pe hartă
  • Widget-uri
  • user-avatar
    Intrare

    Meteo pe oră la New Delhi

    Astăzi, 6 Aprilie, Luni

    Timp Temperatura Precipitaţii Vânt Presiune Umiditate
    00:00 +29°C° 0 mm 2 m/s 738 mmHg 27%
    01:00 +28°C° 0 mm 2 m/s 738 mmHg 28%
    02:00 +28°C° 0 mm 2 m/s 737 mmHg 28%
    03:00 +27°C° 0 mm 2 m/s 737 mmHg 29%
    04:00 +27°C° 0 mm 2 m/s 737 mmHg 30%
    05:00 +26°C° 0 mm 1 m/s 738 mmHg 31%
    06:00 +28°C° 0 mm 1 m/s 738 mmHg 29%
    07:00 +29°C° 0 mm 1 m/s 739 mmHg 27%
    08:00 +31°C° 0 mm 2 m/s 739 mmHg 25%
    09:00 +32°C° 0 mm 2 m/s 739 mmHg 22%
    10:00 +35°C° 0 mm 2 m/s 739 mmHg 18%
    11:00 +37°C° 0 mm 2 m/s 740 mmHg 17%
    12:00 +38°C° 0 mm 3 m/s 739 mmHg 15%
    13:00 +40°C° 0 mm 4 m/s 738 mmHg 12%
    14:00 +41°C° 0 mm 4 m/s 737 mmHg 10%
    15:00 +40°C° 0 mm 4 m/s 737 mmHg 11%
    16:00 +40°C° 0 mm 5 m/s 736 mmHg 11%
    17:00 +39°C° 0 mm 5 m/s 736 mmHg 11%
    18:00 +37°C° 0 mm 4 m/s 736 mmHg 13%
    19:00 +35°C° 0 mm 4 m/s 736 mmHg 14%
    20:00 +34°C° 0 mm 3 m/s 737 mmHg 16%
    21:00 +33°C° 0 mm 3 m/s 737 mmHg 17%
    22:00 +31°C° 0 mm 3 m/s 737 mmHg 19%
    23:00 +30°C° 0 mm 3 m/s 737 mmHg 21%

    Mâine, 7 Aprilie, Marţi

    Timp Temperatura Precipitaţii Vânt Presiune Umiditate
    00:00 +29°C° 0 mm 3 m/s 736 mmHg 22%
    01:00 +29°C° 0 mm 3 m/s 736 mmHg 22%
    02:00 +29°C° 0 mm 3 m/s 736 mmHg 23%
    03:00 +28°C° 0 mm 3 m/s 735 mmHg 24%
    04:00 +28°C° 0 mm 2 m/s 735 mmHg 25%
    05:00 +27°C° 0 mm 2 m/s 735 mmHg 26%
    06:00 +28°C° 0 mm 2 m/s 735 mmHg 24%
    07:00 +30°C° 0 mm 2 m/s 736 mmHg 22%
    08:00 +31°C° 0 mm 2 m/s 736 mmHg 21%
    09:00 +34°C° 0 mm 2 m/s 736 mmHg 18%
    10:00 +36°C° 0 mm 3 m/s 736 mmHg 15%
    11:00 +38°C° 0 mm 3 m/s 737 mmHg 13%
    12:00 +39°C° 0 mm 3 m/s 736 mmHg 12%
    13:00 +40°C° 0 mm 3 m/s 735 mmHg 11%
    14:00 +41°C° 0 mm 4 m/s 735 mmHg 10%
    15:00 +41°C° 0 mm 4 m/s 734 mmHg 10%
    16:00 +41°C° 0 mm 4 m/s 733 mmHg 10%
    17:00 +40°C° 0 mm 4 m/s 733 mmHg 10%
    18:00 +38°C° 0.1 mm 3 m/s 733 mmHg 12%
    19:00 +36°C° 0.1 mm 2 m/s 734 mmHg 14%
    20:00 +34°C° 0.1 mm 1 m/s 734 mmHg 15%
    21:00 +33°C° 0.1 mm 1 m/s 734 mmHg 17%
    22:00 +32°C° 0.1 mm 2 m/s 734 mmHg 19%
    23:00 +31°C° 0.1 mm 2 m/s 734 mmHg 20%

    Poimâine, 8 Aprilie, Miercuri

    Timp Temperatura Precipitaţii Vânt Presiune Umiditate
    00:00 +30°C° 0 mm 2 m/s 734 mmHg 21%
    01:00 +30°C° 0 mm 2 m/s 734 mmHg 21%
    02:00 +30°C° 0 mm 2 m/s 734 mmHg 21%
    03:00 +29°C° 0 mm 1 m/s 734 mmHg 23%
    04:00 +28°C° 0 mm 1 m/s 734 mmHg 24%
    05:00 +28°C° 0 mm 1 m/s 734 mmHg 25%
    06:00 +28°C° 0 mm 2 m/s 735 mmHg 25%
    07:00 +29°C° 0 mm 3 m/s 736 mmHg 25%
    08:00 +29°C° 0 mm 4 m/s 737 mmHg 25%
    09:00 +32°C° 0 mm 4 m/s 737 mmHg 22%
    10:00 +34°C° 0 mm 3 m/s 737 mmHg 19%
    11:00 +36°C° 0 mm 3 m/s 737 mmHg 17%
    12:00 +37°C° 0 mm 4 m/s 736 mmHg 14%
    13:00 +38°C° 0 mm 4 m/s 736 mmHg 11%
    14:00 +40°C° 0 mm 5 m/s 735 mmHg 9%
    15:00 +39°C° 0 mm 5 m/s 735 mmHg 9%
    16:00 +39°C° 0 mm 6 m/s 734 mmHg 9%
    17:00 +38°C° 0 mm 6 m/s 734 mmHg 9%
    18:00 +36°C° 0 mm 5 m/s 735 mmHg 10%
    19:00 +34°C° 0 mm 4 m/s 735 mmHg 11%
    20:00 +33°C° 0 mm 3 m/s 736 mmHg 13%
    21:00 +31°C° 0 mm 3 m/s 736 mmHg 14%
    22:00 +30°C° 0 mm 3 m/s 736 mmHg 16%
    23:00 +29°C° 0 mm 3 m/s 736 mmHg 18%

    9 Aprilie, Joi

    Timp Temperatura Precipitaţii Vânt Presiune Umiditate
    00:00 +29°C° 0 mm 3 m/s 736 mmHg 20%
    01:00 +28°C° 0 mm 3 m/s 735 mmHg 22%
    02:00 +28°C° 0 mm 3 m/s 735 mmHg 23%
    03:00 +27°C° 0 mm 3 m/s 735 mmHg 24%
    04:00 +27°C° 0 mm 2 m/s 735 mmHg 26%
    05:00 +26°C° 0 mm 1 m/s 735 mmHg 27%
    06:00 +27°C° 0 mm 1 m/s 736 mmHg 25%
    07:00 +28°C° 0 mm 2 m/s 737 mmHg 24%
    08:00 +30°C° 0 mm 2 m/s 737 mmHg 23%
    09:00 +31°C° 0 mm 3 m/s 737 mmHg 20%
    10:00 +34°C° 0 mm 3 m/s 738 mmHg 17%
    11:00 +36°C° 0 mm 4 m/s 738 mmHg 14%
    12:00 +37°C° 0 mm 4 m/s 737 mmHg 13%
    13:00 +38°C° 0 mm 4 m/s 736 mmHg 12%
    14:00 +40°C° 0 mm 5 m/s 736 mmHg 11%
    15:00 +39°C° 0 mm 5 m/s 735 mmHg 11%
    16:00 +39°C° 0 mm 5 m/s 735 mmHg 12%
    17:00 +39°C° 0 mm 5 m/s 735 mmHg 13%
    18:00 +36°C° 0 mm 4 m/s 735 mmHg 14%
    19:00 +35°C° 0 mm 4 m/s 736 mmHg 15%
    20:00 +34°C° 0 mm 3 m/s 736 mmHg 16%
    21:00 +33°C° 0 mm 3 m/s 736 mmHg 16%
    22:00 +32°C° 0 mm 2 m/s 736 mmHg 17%
    23:00 +31°C° 0 mm 2 m/s 736 mmHg 18%

    10 Aprilie, Vineri

    Timp Temperatura Precipitaţii Vânt Presiune Umiditate
    00:00 +31°C° 0 mm 2 m/s 736 mmHg 19%
    01:00 +30°C° 0 mm 2 m/s 736 mmHg 19%
    02:00 +30°C° 0 mm 2 m/s 735 mmHg 20%
    03:00 +29°C° 0 mm 2 m/s 735 mmHg 21%
    04:00 +29°C° 0 mm 2 m/s 735 mmHg 22%
    05:00 +28°C° 0 mm 2 m/s 735 mmHg 24%
    06:00 +30°C° 0 mm 2 m/s 736 mmHg 22%
    07:00 +31°C° 0 mm 2 m/s 736 mmHg 20%
    08:00 +34°C° 0 mm 2 m/s 737 mmHg 19%
    09:00 +35°C° 0 mm 2 m/s 737 mmHg 17%
    10:00 +36°C° 0 mm 1 m/s 737 mmHg 14%
    11:00 +39°C° 0 mm 1 m/s 737 mmHg 12%
    12:00 +40°C° 0 mm 2 m/s 737 mmHg 11%
    13:00 +40°C° 0 mm 3 m/s 736 mmHg 10%
    14:00 +42°C° 0 mm 4 m/s 735 mmHg 10%
    15:00 +42°C° 0 mm 4 m/s 735 mmHg 9%
    16:00 +41°C° 0 mm 4 m/s 734 mmHg 9%
    17:00 +41°C° 0 mm 4 m/s 734 mmHg 9%
    18:00 +39°C° 0 mm 3 m/s 734 mmHg 10%
    19:00 +37°C° 0 mm 3 m/s 735 mmHg 11%
    20:00 +36°C° 0 mm 2 m/s 735 mmHg 11%
    21:00 +35°C° 0 mm 2 m/s 735 mmHg 12%
    22:00 +33°C° 0 mm 1 m/s 736 mmHg 13%
    23:00 +32°C° 0 mm 1 m/s 736 mmHg 14%

    11 Aprilie, Sâmbătă

    Timp Temperatura Precipitaţii Vânt Presiune Umiditate
    00:00 +31°C° 0 mm 1 m/s 736 mmHg 15%
    01:00 +31°C° 0 mm 1 m/s 735 mmHg 16%
    02:00 +30°C° 0 mm 1 m/s 735 mmHg 17%
    03:00 +30°C° 0 mm 1 m/s 735 mmHg 18%
    04:00 +29°C° 0 mm 1 m/s 736 mmHg 18%
    05:00 +29°C° 0 mm 1 m/s 736 mmHg 19%
    06:00 +30°C° 0 mm 1 m/s 736 mmHg 18%
    07:00 +31°C° 0 mm 1 m/s 737 mmHg 17%
    08:00 +32°C° 0 mm 2 m/s 738 mmHg 16%
    09:00 +35°C° 0 mm 2 m/s 738 mmHg 15%
    10:00 +36°C° 0 mm 1 m/s 738 mmHg 13%
    11:00 +39°C° 0 mm 1 m/s 738 mmHg 11%
    12:00 +40°C° 0 mm 2 m/s 737 mmHg 10%
    13:00 +41°C° 0 mm 2 m/s 736 mmHg 9%
    14:00 +42°C° 0 mm 2 m/s 736 mmHg 8%
    15:00 +42°C° 0 mm 2 m/s 735 mmHg 9%
    16:00 +42°C° 0 mm 3 m/s 735 mmHg 9%
    17:00 +42°C° 0 mm 3 m/s 734 mmHg 9%
    18:00 +40°C° 0 mm 3 m/s 735 mmHg 10%
    19:00 +38°C° 0 mm 3 m/s 735 mmHg 11%
    20:00 +37°C° 0 mm 3 m/s 735 mmHg 12%
    21:00 +36°C° 0 mm 3 m/s 736 mmHg 13%
    22:00 +35°C° 0 mm 3 m/s 736 mmHg 14%
    23:00 +34°C° 0 mm 3 m/s 736 mmHg 15%
    Arată mai mult